Theta_e
312 316 318 318 318 317 315 315 315 315 315 314 315 319 322 323 325 325 325 324 322 324 325 325 327 326 324 322 322 325 325 325 326 325 324 323 322 323 325 325 327 327 326 325 325 324 322 322 321 321 322 324 325 325 324 322 322 323 322 324 326 327 322 316 314 319 322 324 324 324 325 324 323 323 325 323 321 320 318 318 320 318 315 316 315 314 320
310 314 317 318 318 317 316 315 315 315 314 312 314 320 324 323 325 325 325 324 322 324 324 325 326 327 325 325 324 324 324 324 325 323 322 324 323 322 324 325 325 325 325 326 326 324 322 321 322 322 323 326 326 324 323 323 322 322 326 328 326 323 320 317 313 315 317 318 320 323 324 324 322 324 325 324 321 323 323 321 321 318 315 315 316 316 321
309 312 316 317 317 317 316 315 315 316 314 311 313 320 323 322 324 324 324 324 323 323 324 324 326 327 328 328 326 324 324 323 322 322 322 323 323 323 324 324 324 324 324 325 325 325 323 322 323 323 323 326 325 324 325 323 322 328 335 335 327 323 324 320 314 313 315 314 315 317 320 322 323 324 324 324 323 323 322 318 316 315 315 316 316 317 321
307 310 314 316 317 317 316 316 315 315 314 311 313 319 322 323 324 324 324 324 323 323 324 323 324 327 330 331 328 327 327 324 322 321 322 323 324 324 325 324 325 324 325 325 325 326 324 323 323 324 324 324 325 325 325 321 325 335 337 333 326 326 327 324 318 316 316 315 317 322 323 319 317 319 321 323 325 324 323 318 315 316 317 316 316 319 320
306 308 312 315 317 316 316 316 315 315 314 311 313 318 320 321 324 324 325 326 324 324 324 323 323 325 328 330 329 329 328 326 324 322 320 321 323 324 325 325 326 326 326 326 325 324 324 324 324 324 324 324 325 326 324 324 334 339 331 325 326 324 321 324 323 320 320 321 321 324 324 319 316 317 319 321 324 325 322 318 319 321 318 315 320 323 320
305 307 310 313 316 316 316 317 316 315 313 311 313 319 320 320 322 323 324 326 325 324 324 324 324 324 326 328 328 328 328 326 326 324 321 320 322 323 325 325 326 326 326 325 325 324 324 324 325 324 324 324 325 327 324 326 334 335 324 322 329 325 320 324 324 321 323 325 324 325 324 321 320 320 319 320 321 321 320 320 323 324 319 317 323 325 322
305 306 308 312 315 316 316 316 316 315 313 311 314 319 321 321 322 322 322 323 324 325 324 325 326 325 326 327 326 327 328 327 326 325 323 322 321 321 324 325 325 326 326 325 326 325 322 322 326 325 325 325 326 327 327 325 328 328 324 327 333 327 322 326 325 321 322 325 325 326 323 321 320 320 320 322 321 321 321 322 324 326 322 323 327 326 325
304 306 308 310 313 315 316 316 316 315 312 311 314 317 320 321 321 323 323 323 324 325 324 325 327 327 327 326 326 326 327 328 327 325 325 325 324 322 323 325 324 325 326 325 326 326 324 324 327 327 327 327 327 328 328 327 327 327 326 330 334 328 324 328 327 321 320 325 325 324 324 321 319 319 321 322 322 322 322 323 326 325 324 327 329 325 326
304 305 307 310 312 314 315 315 316 314 311 312 316 317 318 319 319 320 321 322 323 324 324 325 326 327 327 326 326 327 327 327 326 325 325 325 325 324 323 325 325 325 326 326 325 326 325 325 327 327 327 327 327 327 327 327 329 329 328 330 333 331 328 329 326 318 317 322 323 322 323 322 317 318 321 321 321 322 323 324 326 325 324 326 325 323 327
304 305 307 309 311 313 314 314 315 313 310 313 317 317 317 318 319 318 318 319 321 322 323 324 325 326 326 326 326 326 326 326 325 327 326 324 325 325 325 328 328 327 327 327 326 325 325 326 326 326 326 325 325 327 327 326 328 328 330 330 330 331 329 326 323 318 317 322 323 321 321 319 317 319 323 324 325 325 324 325 327 327 328 325 322 324 331
303 304 306 309 311 313 313 314 314 312 310 312 316 317 317 318 318 318 318 319 319 320 321 323 324 325 325 325 325 325 325 326 325 325 326 325 324 324 325 329 332 331 330 328 327 327 326 326 326 326 326 326 326 326 326 326 327 327 328 329 330 331 329 327 324 319 316 321 324 322 320 318 319 325 327 327 326 326 325 325 325 327 327 326 325 328 331
303 303 304 307 310 312 313 313 314 312 311 312 315 317 317 317 317 317 318 320 320 319 320 322 323 324 325 325 325 325 325 325 324 325 326 324 324 324 323 326 331 333 331 328 329 329 327 327 327 326 326 326 326 326 325 325 326 326 326 326 328 330 329 328 326 321 318 321 322 319 318 320 325 329 329 328 328 327 326 325 325 326 325 325 325 326 330
303 303 303 305 308 311 313 313 313 313 311 310 313 316 316 316 317 317 318 320 321 321 320 321 321 323 324 325 325 325 325 324 325 326 326 325 324 325 325 326 328 330 328 327 329 330 329 328 328 327 327 326 326 325 325 325 325 326 326 325 326 329 329 327 324 322 320 318 317 318 321 324 327 330 329 328 330 329 327 325 325 327 326 327 326 327 329
302 302 302 303 306 309 312 312 312 312 311 309 311 315 315 316 316 316 317 318 320 321 321 321 321 321 323 323 324 325 325 325 326 326 326 326 325 325 326 327 327 326 326 327 329 330 330 329 326 324 325 324 323 323 324 325 325 324 326 325 326 328 328 325 323 322 321 317 315 318 321 322 325 330 331 330 330 330 329 325 327 328 327 327 329 328 329
302 302 302 303 304 307 310 311 311 311 311 309 310 313 314 315 316 316 316 317 318 319 320 321 322 322 323 323 323 324 325 325 326 326 324 324 324 325 325 324 325 326 327 329 329 329 329 327 322 319 320 320 320 321 324 325 325 325 326 326 327 327 328 327 323 321 321 317 316 319 319 319 323 330 334 333 329 330 331 326 326 332 331 327 328 328 328
300 301 302 302 303 305 308 310 310 310 310 309 310 312 313 314 315 316 316 316 317 319 319 319 320 321 322 323 323 323 325 326 326 326 326 325 324 324 323 323 325 327 327 328 328 328 328 325 321 319 319 320 320 321 323 323 324 326 329 328 327 327 329 329 325 320 320 318 317 319 318 318 325 331 334 332 328 330 330 323 323 334 337 332 332 332 331
299 301 302 302 302 303 305 308 309 309 309 309 309 311 312 313 313 315 315 315 317 318 318 317 319 320 321 323 324 324 324 324 324 324 326 326 324 323 323 323 326 326 326 327 327 326 325 324 323 321 321 323 323 321 321 322 321 323 327 328 328 328 329 329 324 320 319 319 319 319 318 322 330 331 330 329 329 329 326 321 324 337 340 336 337 337 336
299 299 301 301 301 301 303 305 308 309 309 308 309 310 311 312 313 314 315 315 316 316 316 316 317 318 320 321 322 322 323 323 323 324 325 324 324 324 324 323 326 326 325 326 327 326 325 324 324 321 321 324 325 323 321 321 321 322 325 326 326 327 327 326 324 320 319 319 319 319 321 330 338 334 329 330 329 326 324 325 333 340 339 337 339 338 337
298 298 299 300 300 300 301 302 305 308 309 308 308 309 310 311 312 313 314 315 315 315 316 315 316 317 317 318 319 321 321 322 323 324 325 325 324 324 324 323 325 326 325 325 326 326 324 324 326 325 323 324 325 324 323 323 323 325 327 326 325 325 324 324 323 321 320 320 320 319 322 333 339 333 328 329 328 326 329 335 340 339 336 337 337 336 336
298 298 298 298 299 299 300 301 302 305 307 308 308 309 310 310 311 312 313 314 315 315 315 314 315 316 316 317 319 320 321 322 322 323 324 324 323 324 326 327 325 325 326 326 326 327 325 324 327 327 323 325 329 327 324 325 325 326 328 327 326 325 323 321 322 323 321 320 320 320 325 334 336 332 333 334 331 331 336 339 338 336 335 335 334 334 335
297 298 298 298 298 298 299 300 301 302 304 307 308 309 310 310 311 311 312 313 314 315 315 315 315 316 316 317 318 319 320 321 320 320 321 321 321 324 326 326 325 327 329 327 325 326 325 324 327 328 325 329 334 330 325 326 327 326 329 330 329 326 324 321 323 326 323 320 323 327 331 335 335 335 338 339 336 336 337 336 335 334 334 333 332 333 332
297 297 298 297 298 298 298 300 301 302 302 304 306 308 309 310 311 311 312 313 313 313 314 314 314 314 315 315 316 316 317 318 317 317 317 318 320 322 323 326 327 328 331 332 330 328 328 327 327 327 326 328 330 328 327 326 325 326 329 330 328 328 330 328 328 328 325 325 329 333 333 333 334 335 337 337 335 334 334 333 333 333 332 332 332 331 330
297 297 297 297 297 298 298 298 300 301 302 302 303 306 309 310 311 311 311 313 313 312 313 313 314 314 313 313 314 314 316 317 317 316 317 319 321 322 321 325 326 325 329 333 332 331 332 331 329 329 329 327 326 326 327 326 325 326 328 328 327 330 334 334 332 330 327 327 330 332 332 332 332 332 332 333 332 332 332 331 331 331 330 329 329 329 328
297 297 297 297 297 297 297 298 299 300 302 302 302 304 307 308 309 310 311 312 312 312 312 313 313 314 314 314 314 314 315 316 317 317 317 319 320 321 321 323 323 324 330 332 331 332 334 334 333 333 330 328 326 327 326 325 325 326 326 325 327 328 329 330 330 328 326 326 328 330 331 331 331 330 330 330 329 329 329 330 328 328 327 326 327 327 327
297 297 297 297 297 297 297 297 298 299 301 302 302 304 305 306 307 308 311 312 312 312 312 313 313 314 314 314 314 313 314 315 316 317 317 318 319 320 321 321 322 323 327 329 331 333 333 333 337 336 332 329 329 327 326 325 326 327 326 326 328 328 326 327 328 327 326 327 329 331 330 329 330 329 328 329 328 327 327 327 326 325 325 325 325 326 325
297 297 297 297 297 297 297 297 297 298 300 301 302 304 306 306 306 308 310 311 311 312 312 313 313 313 314 314 314 314 314 314 315 316 317 318 318 318 319 320 321 323 326 330 334 333 328 328 332 332 332 333 331 326 325 327 326 325 326 327 328 327 326 326 326 326 326 327 328 329 329 329 329 328 328 328 328 327 326 325 324 323 323 323 323 323 323
296 296 297 297 297 297 297 297 297 298 299 300 302 303 305 306 307 308 310 311 312 312 312 312 313 313 313 314 314 315 315 314 314 316 317 317 317 317 317 318 320 323 327 331 332 330 325 323 325 326 327 329 327 325 328 331 329 325 325 327 328 327 326 326 326 325 326 327 327 327 328 328 328 328 328 327 327 326 326 325 324 323 322 322 322 322 322
296 296 296 297 297 297 297 297 297 298 299 300 302 303 305 306 306 308 309 310 311 312 312 312 313 313 313 314 314 315 316 315 314 315 316 316 317 316 316 316 318 322 326 328 327 327 326 323 323 323 323 324 324 325 327 329 328 325 324 325 326 326 326 327 326 325 326 326 327 327 326 326 326 326 326 326 325 326 325 325 323 322 322 322 322 322 321
296 296 296 297 297 297 297 297 297 298 299 300 303 304 305 306 306 306 308 309 310 311 311 311 312 313 314 314 314 315 316 316 315 315 316 316 316 316 317 318 318 320 324 324 321 323 326 325 322 321 323 326 327 325 323 324 325 324 324 325 325 325 326 325 324 325 326 324 323 324 325 325 325 325 324 324 324 324 324 323 322 321 321 321 321 320 319
296 296 296 297 297 297 297 297 297 298 299 301 303 304 304 305 306 305 305 308 310 311 310 310 311 312 313 314 314 315 316 317 316 316 316 316 316 316 317 318 318 318 321 321 318 318 320 321 320 319 322 326 328 325 322 323 323 322 322 324 324 324 324 323 322 324 324 322 319 320 321 321 322 322 322 322 322 321 321 321 321 320 321 321 320 319 319
295 296 296 297 297 297 297 297 297 297 299 301 303 304 303 304 306 307 306 306 310 311 309 309 311 311 311 313 313 313 315 316 316 316 316 316 316 317 317 317 318 318 319 319 318 316 316 317 318 318 320 323 324 322 321 322 322 321 321 323 323 322 321 320 319 320 320 319 317 318 318 318 318 319 320 321 320 320 321 321 320 320 321 320 319 319 319
295 296 296 297 297 297 297 297 297 298 300 302 303 304 305 305 307 308 308 308 310 311 309 309 311 311 311 312 313 313 315 316 316 316 316 316 316 317 317 316 317 318 318 317 317 317 316 317 317 317 319 321 321 319 319 320 320 321 321 322 321 320 319 318 317 317 316 316 316 316 317 317 317 318 319 318 319 320 321 321 320 320 320 319 318 318 318
295 296 296 297 297 297 297 297 297 298 300 302 302 303 304 305 305 307 309 310 310 310 309 309 311 312 312 312 313 313 314 315 315 315 316 316 316 316 317 317 317 318 318 317 317 317 316 317 317 317 319 320 319 318 318 318 318 318 319 320 320 319 317 317 316 316 316 315 315 315 316 316 316 317 318 317 318 319 319 319 318 318 318 318 317 317 317
295 296 296 297 297 297 297 297 298 299 301 302 303 303 303 303 304 306 308 310 310 309 308 308 310 311 312 312 312 313 314 315 315 315 316 317 317 316 316 317 317 318 318 317 316 317 316 316 316 317 318 319 318 318 319 318 317 317 317 317 318 318 318 317 316 316 315 315 315 316 316 316 316 317 317 317 317 318 317 317 317 317 317 317 317 317 317
295 296 296 296 296 296 296 297 298 300 302 303 303 304 304 304 304 305 306 309 310 308 307 307 309 311 312 312 313 314 313 314 315 315 315 316 316 315 316 317 318 318 318 317 317 317 316 316 317 317 317 318 319 319 318 317 317 317 317 317 317 318 318 318 317 317 316 316 315 315 315 315 315 316 316 316 316 317 316 316 316 317 317 317 317 317 317
296 296 296 296 296 297 298 299 300 301 302 303 304 304 304 304 305 305 306 309 310 308 308 309 309 310 312 312 313 313 313 314 315 314 315 316 315 314 315 317 318 317 317 317 317 317 316 316 317 317 317 318 319 319 318 317 317 317 317 318 317 317 318 318 317 316 316 315 315 315 315 315 316 316 316 317 316 316 317 317 317 317 317 317 317 317 316
296 296 296 297 298 298 300 301 302 302 302 303 303 303 303 304 305 305 307 308 309 309 309 310 310 311 311 312 313 313 312 314 314 314 315 315 315 314 315 316 316 317 317 317 317 317 317 317 317 317 317 317 318 318 318 317 318 317 317 318 318 317 317 318 317 316 316 315 315 315 314 314 315 315 316 316 316 316 317 317 317 317 317 317 317 317 316
296 296 297 298 299 299 300 301 301 302 302 302 302 302 302 304 305 305 305 306 307 308 309 309 310 311 311 311 313 313 313 313 314 315 316 315 315 315 315 315 315 316 316 317 317 316 317 318 317 316 317 317 317 317 317 317 318 318 317 317 317 317 317 317 317 316 315 315 315 315 315 315 316 316 316 316 316 317 317 317 316 316 316 316 316 317 316
296 297 298 299 299 299 300 301 301 301 301 301 301 301 302 303 305 306 305 305 306 308 310 310 310 311 311 311 313 313 312 313 314 315 316 315 315 315 315 315 315 315 316 317 317 316 318 318 318 317 317 317 317 317 317 317 317 317 317 317 318 317 317 316 316 316 316 316 316 315 316 317 318 318 317 317 317 317 317 317 316 316 316 316 316 315 315
297 298 299 299 299 299 300 300 301 301 301 300 300 301 302 303 305 306 306 306 307 308 310 310 310 310 311 312 312 313 312 312 313 314 315 315 315 315 314 315 315 315 316 317 317 316 317 317 317 317 317 317 316 317 317 316 317 317 318 318 318 318 317 316 315 315 315 315 316 316 317 317 317 317 317 316 316 316 316 316 316 316 316 316 315 315 314
298 298 299 299 299 299 299 299 299 299 299 299 300 302 302 303 305 305 306 308 308 308 309 310 310 311 311 311 312 313 313 311 312 315 315 314 314 314 314 314 314 314 315 316 316 315 315 316 316 316 316 316 316 316 316 316 317 317 317 318 318 318 317 316 315 315 315 315 316 316 317 317 316 316 316 316 316 316 316 316 316 316 315 315 314 314 314
299 299 299 299 298 297 297 296 296 297 298 299 301 303 303 304 305 305 306 308 309 309 309 310 311 311 311 311 311 312 313 312 312 313 314 314 313 313 313 313 313 314 315 315 314 314 315 316 316 316 316 315 316 316 316 316 317 318 318 319 320 319 317 315 315 315 315 315 316 316 316 316 316 316 316 316 315 315 315 315 315 315 314 314 314 314 314
298 298 298 297 296 295 296 296 296 297 299 301 302 304 305 305 306 306 306 307 308 309 310 310 310 310 311 312 312 312 312 312 312 312 313 313 312 311 311 312 312 313 314 313 313 315 316 316 316 316 315 315 316 316 316 317 316 316 318 319 320 318 317 316 315 315 316 316 317 316 316 316 316 315 315 315 315 315 314 314 313 313 313 313 313 313 313
297 296 296 296 295 295 297 298 297 298 301 302 303 304 306 306 306 307 307 307 308 309 310 310 310 311 311 312 312 311 311 312 312 312 312 312 311 311 311 312 312 312 313 313 314 315 315 315 315 315 315 315 315 315 316 316 315 314 316 317 318 317 317 316 316 315 315 316 316 316 316 315 315 315 315 314 314 314 313 313 312 312 312 312 312 312 312
296 296 296 297 297 297 298 300 299 299 301 303 303 304 306 306 306 306 307 307 308 309 310 310 310 311 312 312 312 311 311 311 311 311 311 311 312 312 312 311 312 312 313 313 314 314 314 314 314 314 314 314 314 314 315 315 315 314 315 316 317 317 316 316 315 315 315 315 316 315 315 315 314 314 314 313 313 312 312 312 312 312 312 312 312 312 311
296 297 297 299 300 299 299 301 302 301 301 303 303 304 305 305 305 305 306 307 308 309 309 310 310 311 312 312 312 311 310 310 310 310 310 311 311 312 311 311 312 313 313 314 314 314 314 314 314 314 314 314 315 315 314 314 315 315 315 316 316 316 316 316 315 315 315 315 315 314 314 314 313 313 313 312 312 312 312 311 311 311 311 311 311 311 311
296 297 298 300 301 300 300 302 303 303 303 304 304 304 305 305 306 306 306 307 308 309 309 309 310 312 312 311 311 310 310 309 310 310 310 310 311 311 310 311 312 312 313 314 314 313 313 313 314 314 315 314 314 314 314 314 315 315 315 315 316 316 315 315 315 315 315 315 314 314 313 313 313 312 312 311 311 311 311 311 310 310 310 310 311 311 311
297 298 298 300 302 302 301 302 303 305 306 306 306 306 307 307 307 307 307 306 307 309 310 310 311 313 312 311 310 310 309 309 310 310 310 310 311 311 311 311 312 312 312 313 313 312 313 314 314 315 315 314 314 314 314 314 315 315 315 315 315 315 315 315 315 314 314 314 313 313 313 312 312 311 311 311 310 310 310 310 310 310 310 310 310 310 310
296 297 298 300 301 302 303 304 305 307 308 307 306 306 307 308 308 309 310 309 308 309 310 310 311 312 311 310 310 310 309 309 310 310 310 310 311 311 312 312 313 312 312 312 312 312 313 313 313 315 315 314 314 314 314 314 315 315 314 315 315 315 315 315 314 314 314 313 313 313 312 311 311 311 310 310 310 309 309 309 309 310 310 310 309 309 309
297 297 298 300 301 302 304 306 306 307 307 307 306 307 308 309 309 310 311 311 311 311 312 311 310 310 309 309 309 310 310 309 309 310 311 311 311 311 312 313 313 312 312 312 312 312 313 313 313 314 314 314 314 314 314 314 315 315 315 315 314 314 314 314 314 314 313 313 312 312 311 311 310 310 310 309 309 309 309 309 309 309 309 308 308 308 308
297 298 299 300 301 303 304 304 305 306 307 308 308 308 308 309 309 309 310 312 313 312 311 309 308 308 309 309 310 310 310 309 309 310 311 311 310 311 312 313 312 312 312 312 312 312 312 312 313 314 314 314 314 314 314 315 315 315 315 314 314 313 313 313 313 313 313 312 311 311 310 310 310 309 309 308 308 309 309 309 308 308 307 307 307 308 308
299 299 300 301 302 302 302 303 304 306 307 308 308 308 308 308 309 309 309 310 311 310 308 307 307 308 308 309 309 309 309 309 309 310 311 310 310 311 311 311 311 311 312 312 312 312 312 312 313 314 314 314 314 314 315 315 314 314 314 314 313 313 313 313 312 312 311 311 310 310 310 309 309 308 308 308 308 308 308 308 308 307 307 307 307 308 308
Wind_Speed
15 15 15 15 15 14 12 11 12 13 14 14 12 10 6 5 6 4 7 8 5 5 6 6 7 7 9 12 13 5 1 8 9 7 7 7 7 8 7 7 7 8 8 7 7 5 5 6 6 5 3 5 8 8 7 2 1 3 6 4 4 2 1 3 5 4 2 1 3 2 1 2 3 1 3 4 4 3 3 4 3 3 4 4 4 4 3
14 15 15 15 15 13 11 10 10 10 11 13 11 7 4 5 7 7 6 7 6 7 6 6 7 8 10 13 12 7 5 7 9 9 9 6 7 8 7 8 8 8 9 9 9 7 4 5 8 8 2 7 7 5 5 2 3 2 2 4 3 2 2 3 4 4 3 2 1 3 1 2 1 1 2 2 3 4 2 2 2 2 5 6 4 3 2
14 14 14 14 14 12 10 10 9 8 8 10 7 4 4 5 5 6 7 8 7 7 7 7 8 8 10 11 11 9 6 7 9 11 10 8 8 8 7 8 9 9 9 8 8 9 6 6 7 8 3 4 6 4 4 1 2 4 8 7 4 3 3 3 4 4 3 2 2 2 1 4 1 2 5 2 3 5 5 4 4 2 6 7 4 3 4
15 13 13 13 13 12 11 10 9 7 7 7 5 4 4 3 3 5 6 7 8 6 8 9 9 8 8 8 9 9 8 8 9 10 11 10 9 8 7 8 10 10 9 8 8 11 10 6 4 5 6 4 4 5 4 3 2 9 10 4 4 4 5 6 6 6 6 5 5 2 5 6 2 3 7 4 2 2 3 3 5 4 5 5 3 4 6
15 13 13 13 14 13 13 11 9 7 6 6 4 4 3 3 4 4 3 3 7 7 8 9 9 9 8 6 6 8 9 8 8 9 9 9 9 8 7 8 9 9 9 8 8 10 10 7 6 8 9 4 4 7 3 3 7 7 3 2 2 3 6 7 8 9 9 9 9 9 10 7 2 5 9 5 2 3 1 1 5 6 5 4 4 7 7
15 14 13 13 14 14 14 12 9 7 5 4 2 3 3 3 5 5 4 3 6 6 7 10 12 13 11 7 7 9 10 9 8 7 7 8 9 6 6 9 11 9 8 8 6 8 9 9 11 11 9 5 3 5 2 3 9 4 4 4 2 3 6 6 9 12 11 10 11 12 12 9 5 7 10 7 7 7 2 4 6 5 4 5 7 8 7
15 14 13 12 13 14 14 13 10 7 5 3 2 4 4 3 5 6 6 7 8 8 9 10 12 14 13 8 8 10 10 9 9 7 6 7 9 8 7 9 11 11 11 9 7 7 8 8 9 10 9 8 6 4 4 5 8 3 6 3 3 1 5 5 9 11 10 10 12 12 12 12 9 8 10 11 11 8 6 6 3 1 5 7 8 8 6
15 15 14 12 12 13 14 14 12 9 5 3 4 5 4 2 3 4 6 7 8 9 9 9 9 10 11 8 9 11 11 11 10 9 7 7 7 9 9 9 10 12 13 12 10 9 9 9 9 8 6 6 6 4 1 3 4 2 6 2 5 1 4 6 8 8 8 10 13 13 14 14 11 10 11 10 9 10 9 6 3 3 5 6 6 8 5
14 15 15 12 12 13 13 14 14 10 7 5 5 5 6 6 5 4 5 5 7 8 8 7 7 7 8 8 8 9 11 12 11 10 11 11 8 7 10 11 10 10 12 13 13 11 11 11 10 9 7 7 6 4 2 4 4 3 4 2 3 3 4 5 6 6 6 9 12 14 16 15 13 12 11 8 7 9 9 7 5 5 4 3 5 5 1
13 14 15 13 11 13 13 13 14 12 9 7 6 5 7 8 6 4 4 6 6 7 7 8 7 6 7 9 10 10 11 13 13 9 10 11 10 9 10 7 4 7 10 11 12 12 11 11 9 9 9 8 8 8 8 7 5 3 4 3 3 4 3 4 6 5 6 9 11 12 12 10 8 7 9 9 9 9 9 8 7 5 4 3 2 3 3
12 13 14 13 11 11 12 13 14 14 13 10 7 6 7 6 3 3 4 5 7 7 8 9 9 8 10 13 12 12 12 14 13 9 8 9 9 9 9 3 1 5 7 5 9 12 11 8 8 6 5 5 6 8 9 9 6 4 5 4 3 4 5 5 5 4 7 11 11 8 7 7 5 5 9 10 9 9 11 8 7 6 3 1 3 4 3
12 12 13 13 11 10 11 13 14 15 17 13 8 9 10 6 4 3 4 5 7 7 7 10 10 9 12 14 13 12 13 13 13 11 10 10 9 10 11 6 4 4 5 6 8 10 10 8 8 8 7 6 7 8 9 11 9 7 8 6 5 5 6 5 5 4 5 8 9 6 5 6 4 4 7 9 8 9 12 11 10 10 9 8 9 5 4
11 11 12 12 11 10 11 12 13 16 18 15 9 10 10 7 4 3 4 5 7 7 8 11 13 13 13 12 12 14 13 13 14 13 12 11 10 10 8 4 5 5 4 5 7 8 7 6 7 8 9 9 11 12 13 14 13 11 10 8 6 5 5 4 4 5 5 5 6 5 5 7 6 5 6 4 5 8 10 8 7 9 10 8 7 5 3
10 11 11 11 11 10 10 11 12 15 17 16 12 10 9 8 5 4 3 4 5 7 8 9 12 14 14 13 12 12 12 12 13 13 12 12 11 10 8 5 7 7 3 2 4 4 4 4 4 6 8 8 9 10 12 14 14 13 13 9 6 5 5 4 4 4 5 6 6 5 6 9 7 4 2 1 1 4 5 3 4 8 8 5 4 5 4
9 10 11 10 10 10 9 8 9 13 15 16 13 10 8 7 7 6 5 4 4 6 8 8 8 9 11 12 12 10 8 7 9 11 12 11 9 9 10 10 8 4 2 2 4 4 3 4 5 5 6 7 6 6 8 9 10 12 13 10 7 6 6 4 4 4 4 5 6 5 5 5 3 4 5 4 1 2 4 3 4 7 5 2 2 5 3
8 9 10 10 9 9 8 6 8 12 14 15 14 12 10 7 6 7 6 4 4 5 5 6 7 9 9 8 9 9 8 5 6 7 8 10 10 10 11 9 4 1 4 5 5 5 5 4 6 6 5 7 7 6 6 7 7 9 9 8 8 7 6 5 5 5 5 5 5 5 4 6 6 1 4 2 1 3 3 3 3 6 8 7 6 7 4
8 9 9 9 9 9 8 7 8 10 13 15 14 13 12 8 6 7 6 5 6 6 6 6 7 6 5 4 5 5 4 4 5 5 4 7 11 11 11 8 5 4 7 7 4 5 6 5 6 6 6 7 7 6 6 7 7 7 5 3 5 7 6 5 5 6 6 5 5 5 3 3 4 2 5 3 3 3 2 5 2 6 9 9 9 9 8
9 9 9 9 9 9 8 8 7 8 12 15 15 14 13 10 7 7 7 5 5 7 8 8 7 5 4 3 5 5 4 3 4 4 5 7 8 8 9 8 8 7 8 7 5 6 6 5 6 7 6 7 8 7 7 6 5 5 7 4 5 7 5 5 5 6 7 7 6 5 3 3 6 4 3 3 2 1 2 3 1 5 6 7 8 8 6
9 9 10 9 9 9 9 9 8 7 9 13 14 12 11 10 10 8 7 5 5 7 7 8 8 7 6 5 4 4 5 4 3 3 3 4 6 10 11 6 4 5 6 6 6 5 5 6 7 5 5 7 6 5 6 6 5 4 6 7 6 6 5 5 6 5 6 7 6 6 3 2 6 6 4 5 2 1 0 0 0 2 5 7 7 6 5
9 9 10 9 9 9 9 9 8 7 7 9 11 11 10 10 11 11 9 5 4 6 8 10 10 10 9 7 6 6 5 3 3 3 2 3 7 11 8 3 1 2 4 4 4 4 5 6 6 5 6 6 2 3 3 5 6 6 5 4 4 4 4 5 6 4 5 6 5 4 2 2 7 6 4 5 3 1 2 1 1 3 4 5 6 7 7
9 9 10 10 9 8 8 8 8 8 7 7 8 9 9 10 10 11 12 8 4 3 6 8 10 11 10 10 11 10 8 5 4 4 2 3 6 6 3 3 3 1 1 2 3 4 4 5 5 4 4 4 1 1 2 3 4 6 4 1 2 4 5 5 4 1 3 4 2 1 1 4 8 6 3 4 5 4 1 1 1 2 1 2 4 5 6
9 9 10 10 9 9 8 8 7 8 8 7 7 7 9 10 9 10 12 11 7 6 9 14 17 16 16 18 17 14 11 9 8 5 2 3 4 3 3 5 5 2 1 2 2 2 2 3 4 3 3 4 2 3 4 3 3 5 3 2 1 2 0 1 1 0 1 1 1 3 2 4 6 6 4 5 5 4 2 2 2 2 3 3 3 4 5
9 9 10 10 10 10 9 8 7 7 7 7 7 8 9 10 10 10 11 11 7 8 14 18 17 17 19 20 20 17 14 13 13 9 5 3 3 4 4 3 4 2 1 3 3 2 1 2 2 2 3 4 3 3 5 4 4 6 4 5 4 2 4 2 2 2 2 3 3 4 4 5 5 4 5 5 4 4 4 3 3 4 5 4 3 4 5
10 10 10 10 10 11 10 9 8 7 7 7 7 9 11 12 12 11 8 7 3 3 8 10 8 9 13 15 16 16 16 16 16 13 8 5 2 3 4 3 3 3 2 4 4 2 1 1 1 1 2 4 4 3 3 3 5 7 5 4 6 6 6 4 3 2 3 4 3 4 4 4 4 3 4 4 4 5 5 4 5 5 4 4 3 3 4
10 10 10 10 10 10 11 10 9 8 8 8 8 9 11 14 14 12 9 5 2 1 4 5 6 10 13 14 15 18 18 18 18 17 16 11 7 6 5 4 2 2 3 4 4 2 2 2 1 1 2 4 4 3 4 3 2 3 3 3 1 1 2 3 4 4 5 3 4 7 5 3 2 0 1 3 3 4 3 4 4 3 3 3 2 2 3
10 11 11 11 11 11 11 11 11 10 9 9 9 10 11 13 14 13 11 7 4 3 5 6 5 8 11 12 14 17 20 21 21 19 20 17 13 12 8 6 4 3 3 3 2 2 3 1 1 0 1 2 2 2 4 4 3 3 3 1 3 3 1 2 2 3 6 4 4 6 4 3 2 2 0 3 3 3 2 3 4 4 4 4 3 4 4
10 11 11 11 11 11 11 12 12 11 10 10 10 11 13 14 14 14 13 9 4 3 5 5 4 6 10 12 13 15 18 21 22 19 17 18 17 15 9 5 4 4 2 1 2 2 2 1 1 1 2 2 2 3 3 2 2 5 5 3 4 4 4 3 3 4 3 1 2 3 0 2 2 2 2 2 1 2 3 2 3 5 6 5 5 5 5
11 11 11 12 12 12 12 12 12 12 11 11 11 13 15 17 18 17 17 15 10 5 3 3 4 6 9 10 14 17 18 20 20 18 16 16 17 15 11 7 5 4 3 2 1 1 1 2 2 1 1 3 4 3 3 2 3 5 5 3 3 4 4 3 4 2 1 2 2 2 0 2 2 2 4 4 4 5 7 6 4 5 6 5 5 6 7
12 11 11 12 12 13 13 13 13 12 10 10 11 12 15 17 20 21 20 19 16 8 3 4 5 6 7 8 10 15 19 21 21 20 17 15 15 14 11 6 4 4 3 2 3 3 3 3 2 2 1 1 1 2 3 4 5 5 6 6 4 2 0 1 1 3 2 0 1 2 1 3 3 2 2 3 3 5 8 7 6 5 6 6 7 8 9
12 12 12 12 12 14 14 14 14 12 10 10 9 9 9 11 16 21 22 21 17 9 4 4 5 4 6 9 11 13 15 19 20 20 19 16 13 12 10 7 5 5 4 3 3 3 2 3 3 3 3 2 1 1 3 4 4 6 9 9 6 5 5 2 2 4 1 3 4 4 2 4 4 3 3 4 5 6 8 9 7 3 4 7 8 9 10
13 13 13 12 13 14 14 14 14 12 11 11 8 5 3 3 5 11 19 23 19 9 2 4 5 4 6 8 10 14 16 16 17 18 18 17 14 13 12 9 6 6 5 4 4 4 3 3 4 5 5 4 3 2 4 3 5 7 6 2 4 7 6 4 4 3 2 4 4 4 5 5 6 6 5 5 7 7 6 7 4 2 3 6 9 9 11
13 13 13 13 13 14 14 14 13 12 13 15 13 10 8 5 3 3 13 22 19 8 2 2 4 3 3 5 8 13 16 15 13 12 13 14 11 11 11 10 7 6 6 5 4 4 4 4 4 5 5 6 5 3 5 4 6 7 2 6 7 5 4 5 3 0 3 4 5 6 6 5 7 8 7 7 7 5 4 5 6 5 5 8 10 10 11
14 14 13 14 14 13 14 14 14 13 15 17 19 20 20 16 10 7 9 18 15 6 3 2 3 4 3 3 5 12 15 11 8 8 9 10 9 8 9 9 7 6 6 5 4 3 4 4 5 5 4 4 4 3 6 7 10 12 8 4 6 7 7 5 2 3 5 6 8 8 7 7 8 8 8 8 6 5 6 9 9 8 8 9 10 10 11
14 14 14 14 14 14 14 13 13 13 14 15 16 18 21 22 20 16 13 13 9 3 3 3 2 4 5 4 4 9 13 9 6 7 7 7 7 7 7 6 6 5 6 6 4 4 4 4 5 5 4 4 4 4 6 8 11 12 12 10 7 7 7 7 5 5 6 7 9 10 9 9 9 7 6 6 6 7 9 10 9 8 8 8 9 10 10
14 14 13 13 13 14 14 14 13 13 13 12 12 13 16 19 21 20 18 14 7 2 2 3 3 4 6 5 4 6 10 9 7 7 6 6 7 8 6 3 3 4 5 4 3 4 5 4 5 5 5 6 6 5 6 9 11 11 12 12 10 8 7 6 5 6 7 8 10 10 10 10 8 6 6 8 9 9 10 9 8 8 7 7 8 9 9
13 13 13 13 14 13 12 11 12 11 9 8 9 10 12 14 15 17 19 17 11 4 2 4 4 5 7 7 5 4 6 8 7 6 6 6 6 7 5 4 3 3 3 3 4 5 5 4 4 5 6 6 7 7 8 10 12 12 11 10 9 9 9 7 6 9 12 13 13 11 10 9 8 7 8 9 7 7 8 7 6 7 7 7 8 8 8
11 12 12 12 11 9 7 7 8 8 7 8 8 8 9 10 9 9 12 13 12 8 3 4 7 8 8 6 5 3 4 7 6 6 6 6 5 5 5 5 4 4 3 4 5 6 5 4 5 6 7 7 7 9 10 11 11 11 11 10 9 10 11 10 9 11 13 14 12 9 9 10 9 8 8 8 6 6 7 6 5 6 7 7 7 7 9
11 11 12 10 7 5 3 4 6 6 7 8 7 6 5 5 4 3 3 4 5 5 4 5 7 8 8 7 6 4 4 5 6 6 5 5 4 3 4 4 4 3 4 5 6 5 4 4 4 6 7 8 9 10 11 12 11 10 10 9 9 9 10 10 9 9 9 9 7 6 7 9 9 8 7 7 5 5 5 5 5 5 7 7 8 9 10
10 9 8 7 6 4 2 3 5 8 9 8 5 3 2 3 3 3 3 2 3 3 4 5 8 9 10 10 8 5 3 4 5 6 6 4 3 3 4 4 3 3 4 4 4 4 4 4 3 5 7 9 10 11 11 11 11 10 9 9 9 9 9 9 8 6 6 5 6 5 3 3 5 6 5 4 4 4 5 5 6 7 8 9 10 11 10
11 8 5 4 3 2 5 8 9 9 7 4 2 1 2 3 3 3 3 3 3 3 4 5 7 8 10 11 9 7 5 4 4 5 5 4 2 2 3 3 3 4 5 4 3 3 4 4 4 6 7 8 9 10 10 10 10 9 8 7 6 6 8 8 7 6 6 6 5 3 3 3 3 3 4 4 4 4 5 6 7 8 9 10 11 12 12
9 6 4 3 4 7 9 9 7 4 2 1 2 2 3 4 4 2 2 4 5 4 4 6 7 8 10 10 9 7 6 3 3 2 3 3 3 3 4 4 3 3 4 4 3 3 4 4 5 7 7 8 9 10 10 10 10 8 8 7 6 6 8 8 7 7 7 7 4 3 3 4 4 3 4 5 4 4 5 6 7 9 10 11 12 13 13
10 7 5 8 9 9 7 5 3 1 0 2 2 3 3 3 4 3 3 5 5 5 5 7 9 9 9 10 8 6 3 1 1 1 1 2 2 2 3 3 3 3 5 5 4 4 5 5 6 6 7 8 9 9 9 10 9 8 8 7 6 5 4 4 5 6 6 4 3 4 5 5 4 3 5 6 5 4 5 6 7 9 11 11 12 13 13
7 8 9 8 6 4 3 2 1 1 2 2 2 4 4 4 4 5 4 4 5 6 7 7 7 7 8 9 8 5 2 0 1 1 1 1 1 2 2 3 3 4 4 4 4 5 6 6 6 6 6 7 9 9 9 9 7 6 4 4 5 5 4 3 2 3 3 1 1 3 4 4 3 3 4 6 6 7 8 8 8 9 9 10 11 12 13
6 6 5 3 2 2 2 2 2 2 3 4 4 5 7 7 7 7 7 6 6 7 8 8 9 9 9 8 7 5 2 0 0 1 0 1 2 3 3 4 4 3 3 3 4 5 5 5 6 7 7 7 7 7 7 6 6 6 4 7 8 5 4 3 3 4 3 3 3 4 3 3 3 3 4 6 8 8 9 9 9 9 9 10 10 11 12
3 2 2 2 3 3 3 3 3 3 5 5 5 5 8 10 10 10 9 7 7 8 10 10 10 10 9 7 5 4 3 1 1 1 0 1 2 3 3 3 3 2 2 3 4 5 6 7 7 7 8 7 6 5 4 4 5 5 4 6 7 4 3 3 4 4 4 4 5 6 4 2 3 4 5 6 7 8 8 8 9 9 10 10 10 11 12
2 2 2 2 3 3 3 3 4 4 5 6 7 8 10 11 10 10 9 7 7 9 10 10 10 10 9 6 4 4 3 3 2 2 2 1 2 2 2 2 3 3 3 4 6 7 7 7 6 6 7 7 5 4 3 4 4 2 3 4 5 3 4 5 5 4 4 5 6 4 2 2 4 5 6 6 7 7 7 8 9 10 10 10 11 12 12
2 2 2 3 3 4 4 4 5 4 4 5 7 9 10 10 10 10 9 9 9 9 9 9 9 9 8 5 3 3 4 3 3 3 3 2 2 2 1 2 3 4 5 7 8 7 6 6 5 5 5 5 6 6 5 5 5 3 4 4 5 5 5 5 5 5 6 5 3 1 1 4 6 6 6 6 6 7 7 8 9 10 10 10 11 11 12
1 2 3 3 3 4 5 6 5 4 4 4 4 4 6 7 9 10 10 10 9 10 11 10 8 7 6 5 5 5 5 4 4 4 3 2 2 3 3 4 5 5 5 7 7 6 5 5 5 5 5 6 6 5 4 4 5 5 6 6 7 7 7 5 5 5 6 4 3 3 5 6 5 4 5 6 5 6 7 8 9 10 10 10 11 11 12
3 2 2 3 3 3 4 5 5 5 4 3 2 4 5 7 8 8 8 8 9 10 10 10 8 6 5 4 4 5 5 4 4 4 4 4 3 4 4 5 7 7 6 6 6 6 5 5 5 4 4 4 5 4 4 4 4 4 5 5 6 6 6 6 6 5 4 4 4 4 2 1 2 3 4 5 5 6 7 8 9 9 9 9 10 12 13
3 2 2 3 4 4 3 2 4 5 4 3 3 5 5 7 8 7 6 7 9 9 7 6 6 6 4 3 3 4 4 4 4 5 6 6 5 5 6 6 7 6 5 5 5 5 5 5 4 4 5 4 4 4 5 5 4 4 5 5 6 6 7 7 7 6 5 5 4 1 4 3 2 3 4 5 5 6 7 7 7 8 9 10 11 12 14
3 3 3 4 5 4 3 3 4 5 5 4 4 4 5 6 7 5 2 3 6 8 7 5 4 5 5 5 5 4 3 4 5 6 7 6 6 6 7 7 6 5 5 6 6 5 5 5 4 5 6 6 5 4 5 5 5 5 5 6 7 7 7 7 8 8 7 6 4 3 2 1 3 2 3 4 5 5 5 6 6 7 10 12 13 13 14
3 3 3 3 4 5 5 5 5 5 3 3 3 3 4 5 5 3 2 1 3 6 8 6 5 5 5 6 5 4 4 5 6 7 7 7 6 6 7 7 6 6 6 6 6 5 5 3 3 5 7 7 6 6 6 6 5 5 6 7 7 7 6 6 7 8 7 5 4 4 4 3 1 1 3 5 5 4 4 5 7 8 11 12 12 13 14
Wind_Direction
285 274 266 263 267 273 283 296 311 327 338 346 346 330 292 249 272 256 166 165 206 240 254 252 244 240 241 247 246 237 260 255 259 266 239 224 233 236 235 243 252 264 267 271 272 256 234 229 221 226 218 98 97 107 103 89 272 258 273 315 27 37 284 277 285 296 289 137 126 122 59 298 267 304 357 332 353 47 41 2 358 344 347 1 343 3 92
296 276 264 258 258 263 274 287 302 321 340 353 347 321 283 279 290 274 200 181 219 244 245 252 252 242 240 246 251 258 263 251 250 255 245 225 224 230 235 238 236 246 258 267 273 266 241 228 235 238 195 100 106 114 95 85 266 276 346 8 4 319 245 240 269 284 256 224 158 131 129 293 310 354 303 293 354 8 44 345 313 357 357 355 348 1 63
309 286 266 255 250 254 263 274 291 311 334 352 348 307 298 300 286 273 244 216 221 240 244 255 270 268 255 248 247 251 254 250 252 259 261 248 233 232 234 239 241 240 242 255 272 272 252 221 238 261 274 115 133 128 92 135 265 36 51 28 339 303 292 279 268 277 284 323 7 82 290 301 359 317 294 295 324 342 31 356 312 4 1 346 348 2 10
317 298 273 256 248 248 253 262 278 296 321 346 337 288 293 296 271 271 253 218 213 239 253 258 272 284 281 269 253 245 246 245 239 245 260 260 249 247 240 236 241 239 237 240 245 255 261 255 247 257 254 229 161 130 133 163 83 53 57 35 319 295 291 290 283 293 307 311 314 242 219 244 229 252 273 269 256 302 60 359 314 340 337 320 352 360 344
316 308 285 262 249 243 243 252 263 277 308 342 336 274 263 279 272 270 272 228 218 228 239 243 249 256 263 275 266 249 247 248 230 214 232 254 255 253 247 239 243 242 237 238 238 246 254 249 245 255 260 255 120 116 154 156 99 66 58 186 226 269 270 273 273 274 273 273 281 269 250 257 313 308 299 302 264 269 90 92 299 308 302 306 354 348 330
313 312 295 268 252 243 236 242 250 260 288 328 334 256 230 240 260 273 318 298 241 236 245 243 239 237 238 251 266 260 248 242 232 204 210 241 245 241 245 245 248 249 239 238 244 248 247 232 227 239 256 262 130 127 215 158 124 130 237 197 158 269 269 278 282 278 278 284 287 287 287 291 295 295 299 293 272 270 242 212 247 275 301 313 333 337 331
313 313 303 276 256 244 233 234 240 244 261 290 288 257 241 253 268 281 308 295 273 286 298 284 257 236 228 232 245 255 254 243 242 228 212 232 236 230 235 241 246 249 243 241 238 235 248 258 246 237 236 240 228 200 198 157 135 172 249 206 92 327 278 294 293 285 287 287 279 279 285 284 276 278 281 277 280 283 268 249 243 4 329 313 328 336 333
314 315 311 288 261 246 234 228 229 232 238 246 246 243 242 275 302 308 312 296 282 286 293 300 287 246 228 229 233 243 249 246 249 245 223 219 231 237 240 238 241 248 248 247 240 224 228 250 267 277 274 261 265 279 264 174 150 210 249 200 102 102 287 313 310 297 295 290 285 283 283 281 278 272 266 267 283 294 293 301 348 358 316 321 338 327 324
312 316 317 301 270 251 238 227 222 220 218 225 236 236 245 268 303 334 321 297 289 283 268 270 284 263 236 231 230 240 250 248 251 256 244 230 220 232 247 247 244 246 250 253 249 239 233 234 241 254 263 265 266 274 274 234 205 214 240 191 128 183 268 301 290 278 282 283 282 282 284 287 284 280 283 287 291 294 295 305 319 308 294 325 327 309 318
308 314 318 311 282 256 244 233 224 214 211 231 250 244 244 261 281 305 292 277 283 288 272 251 251 258 255 245 233 233 249 255 253 261 266 251 230 228 245 260 269 251 247 256 264 263 255 249 248 243 241 246 243 234 236 240 232 223 222 209 215 243 271 279 264 266 276 271 270 277 288 293 287 299 321 320 308 300 290 288 297 280 217 183 270 254 167
305 309 315 316 296 266 251 239 228 215 208 220 252 264 259 264 278 276 266 263 265 269 266 253 242 239 250 255 248 235 237 248 247 245 260 260 252 252 255 262 318 270 266 289 299 294 290 299 314 300 265 250 245 241 247 251 250 248 244 229 222 247 266 273 269 274 281 281 282 283 285 281 279 311 319 307 298 293 288 293 302 290 274 294 279 248 163
301 305 311 316 304 282 261 242 230 220 211 217 254 277 272 276 285 263 245 251 258 256 256 256 254 251 248 252 259 254 245 248 248 242 244 248 249 260 261 237 204 256 310 329 318 315 316 316 313 296 273 257 250 248 250 248 242 239 247 245 224 224 237 256 270 261 266 287 290 274 256 258 262 282 293 298 305 303 303 314 323 322 325 315 295 295 88
298 302 307 312 308 293 269 245 234 227 217 218 246 270 275 286 286 254 249 257 253 250 255 257 257 259 255 251 260 264 260 262 266 262 255 248 244 254 267 253 221 243 292 308 301 308 306 289 279 274 267 257 252 251 248 246 242 238 238 234 229 241 242 241 263 261 255 270 270 266 284 288 272 241 238 269 313 307 306 311 312 320 324 314 312 336 46
296 300 303 307 310 298 270 245 240 236 223 218 236 260 275 282 268 237 244 256 252 260 267 258 251 254 254 252 255 259 259 268 277 275 262 250 248 254 261 257 248 248 255 287 290 287 277 270 264 259 256 249 247 246 243 241 238 237 238 226 213 242 258 248 251 256 259 264 259 268 290 288 284 280 258 141 283 300 320 330 298 303 303 302 331 338 340
294 300 300 302 311 305 279 250 246 245 227 216 229 253 264 263 263 264 259 249 260 278 271 256 265 282 275 261 255 252 250 264 276 275 264 252 246 253 256 253 250 235 198 231 249 234 229 243 239 234 236 238 240 238 239 242 232 228 235 229 209 227 254 252 246 245 251 265 270 276 276 268 288 20 37 29 359 20 28 11 307 312 310 269 284 302 311
295 298 300 299 305 306 293 268 253 246 229 216 222 242 249 247 258 267 261 245 243 257 263 270 299 317 309 288 271 252 236 248 277 278 268 255 246 242 244 247 248 209 217 225 230 229 225 221 228 235 228 226 236 239 239 248 239 223 224 216 205 221 247 253 252 253 250 252 261 262 260 271 284 359 84 69 86 79 39 296 292 2 21 31 2 339 357
298 295 297 299 300 300 296 282 260 243 229 218 219 232 239 239 251 258 250 238 235 244 269 300 316 315 306 317 318 288 246 251 278 287 286 270 258 246 234 216 174 195 237 238 225 226 224 212 220 235 231 224 234 242 236 244 247 223 199 190 215 226 237 245 244 248 252 254 260 261 259 301 330 65 112 108 96 87 306 275 310 31 30 31 26 18 18
297 293 292 295 297 296 293 286 274 248 227 219 219 230 237 231 238 254 252 239 235 244 264 289 307 309 307 327 330 328 337 315 291 304 303 280 273 275 263 232 187 193 227 238 235 227 220 213 218 228 233 228 232 244 237 236 247 216 179 185 238 234 229 242 238 236 244 245 251 262 272 11 15 19 71 78 87 170 264 269 359 33 37 47 48 47 36
292 293 291 289 293 294 288 283 279 261 231 219 221 235 243 230 224 236 246 238 230 239 259 286 301 311 324 323 302 308 325 310 299 327 313 287 312 324 313 286 204 198 219 225 233 234 221 219 220 225 237 231 232 256 249 234 247 222 171 182 220 221 215 234 234 234 242 238 238 248 240 1 347 338 19 41 12 264 191 184 282 33 56 65 58 55 56
289 292 292 288 288 289 286 282 277 268 251 232 227 237 248 240 228 230 236 242 250 255 260 270 288 311 329 323 311 328 343 330 320 328 295 298 334 337 331 311 215 229 233 229 233 235 229 225 219 219 234 233 240 329 298 254 243 230 204 207 225 206 201 225 228 236 248 241 247 257 231 23 350 339 23 35 16 71 121 110 80 61 67 77 69 51 41
288 289 291 289 285 284 286 285 276 268 266 253 239 243 253 249 236 232 237 246 260 262 258 275 302 320 320 307 309 325 333 335 352 6 358 317 324 332 326 309 310 307 296 277 244 231 237 234 225 226 237 231 139 34 302 285 254 235 229 265 236 210 215 229 217 198 249 244 242 254 147 45 20 14 50 60 56 77 102 329 41 57 44 73 85 70 44
288 287 287 286 284 282 285 289 283 272 268 262 251 252 258 255 248 240 236 238 244 256 276 296 308 306 294 289 293 298 299 302 312 325 334 318 317 299 277 310 332 353 334 317 283 248 264 255 245 263 262 238 204 202 217 233 263 247 212 148 234 255 323 283 254 172 297 294 80 91 91 69 49 43 59 67 59 54 29 9 48 62 40 42 65 76 61
286 287 286 284 284 283 281 285 288 279 271 266 254 251 260 266 268 256 235 227 238 264 275 286 296 295 287 282 280 276 272 275 279 277 263 264 312 311 293 318 345 337 332 9 360 339 332 314 307 323 291 269 268 250 225 211 239 256 221 167 176 149 109 116 290 318 301 261 192 147 107 87 82 64 57 60 54 47 40 44 67 65 45 42 47 46 39
283 285 286 284 283 284 281 281 283 279 276 272 256 252 261 267 273 274 251 222 215 280 275 268 264 268 272 274 276 273 261 254 257 254 233 208 234 304 318 352 351 331 358 8 341 319 62 10 348 16 336 321 330 313 265 220 227 252 253 209 196 181 164 188 237 259 266 256 186 135 110 109 113 96 92 96 75 60 52 49 63 61 30 23 34 14 353
279 281 285 285 284 284 282 280 280 278 275 273 264 258 260 260 264 269 265 247 218 216 258 253 238 246 256 261 267 267 259 256 254 236 212 199 205 237 285 325 308 275 327 339 326 359 54 37 10 26 327 329 345 336 312 307 266 256 281 286 244 160 175 224 231 233 247 241 105 92 90 109 128 132 110 99 73 76 87 68 50 24 330 329 352 336 326
278 278 281 284 285 285 283 281 280 277 273 271 267 260 258 258 259 256 254 262 268 240 248 262 258 253 253 248 250 251 248 255 261 241 211 203 212 225 253 303 296 253 278 314 334 46 66 51 9 74 274 316 339 290 290 319 342 314 291 33 93 107 200 243 228 246 260 246 142 123 129 151 191 252 53 72 56 41 43 29 359 322 307 317 331 332 331
276 278 280 282 284 284 283 280 278 276 274 271 267 262 259 259 257 250 244 243 240 226 243 255 259 268 268 259 254 250 241 243 254 249 222 211 216 216 217 238 259 248 238 273 3 26 76 118 264 233 241 280 275 258 271 331 346 293 272 192 155 199 232 234 233 245 265 297 93 102 218 249 213 195 167 125 99 329 318 312 302 303 311 321 322 316 314
274 276 277 280 282 283 283 281 277 275 274 272 267 264 262 258 253 250 246 241 238 244 277 286 292 305 301 278 256 250 242 233 235 240 232 223 219 214 207 213 233 243 221 174 120 82 153 195 237 232 271 297 286 274 270 225 221 265 276 261 260 274 264 247 258 266 119 119 124 122 248 283 268 217 203 187 185 218 230 228 249 287 295 302 313 314 312
272 274 274 276 279 281 282 281 279 276 273 272 269 267 267 262 253 248 244 242 243 252 292 302 290 296 307 299 272 253 239 224 219 224 229 229 226 217 209 209 223 236 238 201 177 174 177 195 228 227 199 264 297 282 263 242 230 237 241 244 261 311 111 232 321 44 66 319 3 70 52 322 321 307 242 229 227 234 244 253 270 287 296 314 328 323 317
271 271 271 272 274 278 281 281 280 277 269 264 261 261 267 261 247 241 238 236 237 242 261 275 275 286 299 300 298 283 255 228 216 220 223 226 232 224 207 203 222 228 230 227 215 213 202 182 194 212 204 170 106 282 263 256 255 251 245 238 215 153 148 173 89 88 118 302 349 15 334 306 309 299 280 275 274 278 285 287 286 295 324 327 322 311 307
269 268 270 271 271 275 280 280 279 275 264 251 238 229 247 252 229 230 229 224 222 223 236 256 265 298 304 283 277 282 272 240 219 220 220 219 233 233 214 205 216 216 216 227 220 214 220 203 190 203 200 161 126 272 278 277 269 269 270 227 155 149 145 127 100 107 239 285 312 303 284 281 277 266 258 263 275 292 310 306 285 225 236 285 297 300 302
266 267 268 269 270 275 279 280 278 270 254 242 231 229 244 271 331 280 220 209 205 197 171 238 252 263 283 265 245 255 261 245 223 222 217 208 219 232 219 212 218 211 207 226 230 209 209 219 221 220 198 149 140 216 253 251 254 262 253 115 130 148 136 109 97 113 276 291 297 289 283 282 279 276 277 279 283 300 328 316 301 292 288 296 299 297 294
264 265 266 268 271 275 277 278 276 268 256 248 245 245 247 250 270 286 223 197 189 175 159 199 250 237 238 275 243 230 237 240 228 223 213 199 203 217 213 212 222 212 192 203 231 222 200 207 224 222 185 141 145 213 231 227 238 252 251 197 160 155 145 137 149 288 291 289 284 278 275 275 272 272 281 292 301 310 307 300 300 303 301 294 287 284 292
261 264 266 269 272 275 276 278 274 263 253 249 247 249 248 244 249 259 240 201 177 141 159 195 243 235 236 289 283 218 216 223 218 212 208 195 196 211 211 207 216 213 191 189 214 226 206 205 221 220 195 180 196 219 233 234 236 244 252 246 219 186 176 184 212 244 258 267 272 271 271 272 272 273 281 290 291 286 279 275 270 269 274 281 289 299 310
260 263 266 270 275 275 275 272 263 251 242 236 236 244 247 243 243 246 236 211 181 117 156 197 235 230 222 249 265 214 209 222 223 213 205 190 192 209 217 198 197 207 190 175 204 234 225 211 218 228 227 222 218 215 226 239 242 243 248 249 247 249 255 257 258 267 277 284 287 285 280 275 272 270 265 263 266 269 268 266 272 285 296 304 308 311 314
259 263 268 273 274 273 269 258 245 237 232 227 226 229 233 236 238 237 229 224 228 244 172 169 208 221 215 227 240 212 209 223 220 207 204 197 197 211 217 201 196 206 193 180 206 227 226 212 211 227 233 232 230 225 221 229 239 244 246 248 254 263 273 278 278 280 282 277 273 273 276 271 258 248 252 258 265 278 289 301 321 329 324 317 315 315 316
261 265 271 273 268 260 251 232 222 224 227 219 206 197 201 211 223 228 226 229 241 251 225 189 207 212 212 226 234 209 210 222 212 198 203 203 196 201 205 200 196 193 194 209 218 219 218 210 211 225 233 233 240 246 240 234 236 238 240 242 246 254 261 263 259 263 270 271 266 270 286 290 280 266 267 275 279 285 295 311 329 324 313 313 316 312 309
261 265 266 264 249 226 221 218 212 208 199 185 171 161 170 188 202 210 211 217 226 227 223 223 219 208 205 218 222 206 209 220 209 198 204 207 197 192 196 199 194 185 196 213 213 210 220 223 217 228 239 240 243 249 248 246 246 247 250 253 253 255 262 261 250 250 265 277 276 271 281 295 301 296 288 289 296 300 297 293 294 298 298 298 301 307 316
259 261 257 244 227 207 171 147 160 169 168 164 165 168 170 186 202 195 182 195 216 209 207 221 223 210 203 208 212 209 222 240 223 206 201 201 193 184 183 187 184 188 207 212 190 184 210 227 222 229 239 240 239 241 243 245 247 249 253 254 251 252 258 260 255 255 265 274 276 277 287 325 333 328 322 319 316 312 304 296 299 308 310 309 314 321 325
243 241 238 231 217 147 127 137 145 150 152 157 196 217 181 191 209 196 165 176 202 209 203 210 218 214 210 212 213 207 207 236 245 221 203 196 181 162 185 203 190 184 200 205 172 174 205 220 221 227 234 237 237 237 237 237 238 239 242 246 246 247 254 258 262 273 279 276 279 305 348 348 329 326 329 316 300 302 311 314 318 321 319 315 317 321 320
230 224 217 190 145 120 124 138 144 136 126 164 198 196 192 201 208 200 185 193 200 205 202 199 204 209 210 214 215 206 198 223 276 262 208 193 173 160 184 203 192 179 195 198 178 177 202 221 229 233 236 236 236 239 241 241 238 233 232 234 230 232 242 246 242 244 258 266 262 242 250 264 273 288 297 295 301 316 319 315 314 312 307 306 311 316 319
240 216 159 129 121 118 121 129 131 117 202 220 201 192 197 200 192 189 204 212 210 203 193 194 203 208 202 201 206 205 189 182 331 303 210 206 192 175 184 189 186 194 201 198 188 189 203 219 229 234 239 239 236 234 236 236 229 218 214 215 211 206 216 230 233 231 239 259 279 278 270 261 247 254 280 292 303 303 290 290 300 306 308 315 321 320 318
206 172 137 117 110 118 141 171 184 186 200 214 209 195 192 192 192 198 206 216 219 210 193 186 195 201 193 191 195 197 187 119 124 151 194 226 205 187 192 195 195 198 194 193 204 211 211 215 224 227 230 233 231 226 224 222 216 205 179 118 94 102 120 139 203 227 207 181 266 293 289 277 265 276 296 297 291 283 282 291 305 312 315 320 320 316 317
146 130 121 118 132 162 179 182 173 187 205 207 202 199 195 190 191 199 201 200 203 202 190 181 185 189 189 188 187 182 183 245 111 111 332 270 210 190 195 198 197 194 187 198 216 222 216 217 225 228 230 234 234 229 220 207 204 204 158 104 97 112 140 153 185 201 172 154 187 218 225 245 276 293 292 287 290 299 310 318 322 321 320 322 322 323 328
160 133 140 164 168 173 189 185 168 189 214 211 202 208 208 199 197 203 205 200 197 194 189 187 188 184 177 174 178 177 172 143 113 120 264 266 220 203 207 202 195 195 206 215 220 221 220 220 218 221 228 237 244 237 214 189 192 203 171 127 121 139 162 161 174 188 181 183 203 213 212 227 274 280 280 287 296 305 315 324 328 331 333 334 333 329 328
200 181 182 210 201 187 198 201 187 196 214 208 203 213 217 210 206 207 205 201 203 197 188 187 190 182 169 161 166 170 158 133 129 157 192 211 204 214 243 234 206 195 204 218 221 220 223 224 217 211 216 227 239 237 200 154 136 150 165 146 136 148 180 182 177 180 199 208 208 206 215 263 271 274 281 293 300 306 319 334 340 340 337 332 327 324 324
238 200 203 245 224 195 209 224 217 215 226 220 216 222 224 221 221 216 205 202 207 200 186 183 185 177 165 152 144 156 165 161 158 172 185 187 184 194 224 244 223 200 200 213 219 220 221 225 224 216 209 211 227 235 210 155 136 158 187 166 151 160 181 183 171 179 201 207 182 136 245 256 264 277 289 296 306 324 340 343 340 336 331 327 325 324 322
243 190 201 239 232 206 215 225 229 239 246 242 248 255 245 236 233 226 212 203 200 194 187 183 175 163 161 163 159 164 176 174 161 166 180 192 191 187 189 206 217 215 211 216 218 217 214 212 210 208 199 195 207 222 203 154 158 186 190 175 171 177 176 170 177 196 204 192 174 213 244 250 262 290 302 303 315 333 341 336 332 333 332 329 324 319 314
249 214 218 248 261 255 242 231 229 241 247 247 259 257 238 224 224 227 221 208 197 189 186 181 166 151 158 169 163 168 180 176 160 163 180 193 202 196 190 199 209 212 211 212 212 211 213 208 199 192 183 177 180 182 160 138 156 185 183 174 176 176 169 171 185 192 183 182 199 222 254 281 290 300 311 322 332 338 340 340 336 329 324 323 319 313 312
227 233 247 242 247 267 273 237 219 229 237 236 233 233 223 207 199 200 208 204 190 176 170 172 168 158 155 155 156 168 182 182 174 175 182 192 203 202 198 205 212 209 205 210 210 205 206 200 172 132 113 117 133 147 145 139 149 169 168 162 166 173 178 184 181 168 173 201 210 90 51 36 316 314 341 351 346 337 336 338 333 324 322 324 321 315 315
209 236 248 238 242 258 275 270 253 246 238 225 222 229 230 216 197 178 165 192 181 163 153 158 160 149 153 169 173 165 162 176 187 189 191 196 203 201 200 208 212 204 203 212 210 198 195 194 168 138 130 128 124 126 135 144 157 167 161 159 167 176 179 179 174 171 184 201 193 116 93 245 271 316 336 321 313 316 322 326 329 332 334 332 328 327 330
222 243 249 241 242 245 249 262 273 271 252 235 236 236 237 236 221 167 112 141 173 156 149 150 147 146 159 171 163 140 141 167 187 197 201 201 201 203 207 212 214 212 213 214 204 186 175 157 108 104 117 125 130 136 140 144 155 163 159 161 168 166 159 168 185 188 185 187 191 190 194 206 231 301 298 294 299 312 324 326 330 334 335 334 338 345 345